Charlottesville, VA

10:30 AM EDT on October 15, 2019 (GMT -0400)
Charlottesville-Albemarle

Weather History for KCHO - August, 2019

Change the Weather History Date:

Sunday, August 11, 2019

  Actual Average Record
Temperature  
Mean Temperature 74 °F 75 °F  
Max Temperature 86 °F 85 °F 102 °F (1926)
Min Temperature 61 °F 64 °F 54 °F (2008)
Degree Days  
Heating Degree Days 0 0  
Month to date heating degree days 0 0  
Since 1 June heating degree days 0 12  
Since 1 July heating degree days 0 1  
Cooling Degree Days 9 10  
Month to date cooling degree days 146 110  
Year to date cooling degree days 1214 740  
Since 1 June cooling degree days 928 654  
Growing Degree Days 24 (Base 50)    
Moisture  
Dew Point 59 °F    
Average Humidity 61    
Maximum Humidity 84    
Minimum Humidity 37    
Precipitation  
Precipitation 0.00 in 0.14 in 0.48 in (2001)
Month to date precipitation 0.52 1.54  
Year to date precipitation 25.82 26.06  
Sea Level Pressure  
Sea Level Pressure 30.02 in    
Wind  
Wind Speed 2 mph (SSE)    
Max Wind Speed 9 mph    
Max Gust Speed 14 mph    
Visibility 10 miles    
Events      
T = Trace of Precipitation, MM = Missing Value Source: NWS Daily Summary

Daily Weather History Graph

Daily Weather History Graph

Search for Another Location

Airport or City:

Astronomy

Aug. 11, 2019 Rise Set
Actual Time 6:24 AM EDT 8:12 PM EDT
Civil Twilight 5:56 AM EDT 8:40 PM EDT
Nautical Twilight 5:22 AM EDT 9:15 PM EDT
Astronomical Twilight 4:45 AM EDT 9:51 PM EDT
Moon 5:47 PM EDT (8/11) 2:45 AM EDT (8/11)
Length of Visible Light 14h 44m
Length of Day
13h 47m
Waxing Gibbous, 87% of the Moon is Illuminated
Aug 11
Waxing Gibbous
Aug 15
Full
Aug 23
Last Quarter
Aug 30
New
Sep 5
First Quarter

Hourly Weather History & Observations

Time (EDT) Temp. Heat Index Dew Point Humidity Pressure Visibility Wind Dir Wind Speed Gust Speed Precip Events Conditions
12:53 AM 68.0 °F - 60.1 °F 76% 29.99 in 10.0 mi Calm Calm - N/A   Clear
1:53 AM 66.9 °F - 60.1 °F 79% 29.99 in 10.0 mi Calm Calm - N/A   Clear
2:53 AM 64.0 °F - 59.0 °F 84% 29.99 in 10.0 mi Calm Calm - N/A   Clear
3:53 AM 64.0 °F - 57.9 °F 80% 29.99 in 10.0 mi West 4.6 mph - N/A   Clear
4:53 AM 62.1 °F - 57.9 °F 86% 29.99 in 10.0 mi Calm Calm - N/A   Clear
5:53 AM 62.1 °F - 57.0 °F 84% 30.01 in 10.0 mi Calm Calm - N/A   Clear
6:53 AM 62.1 °F - 57.9 °F 86% 30.04 in 10.0 mi Calm Calm - N/A   Clear
7:53 AM 66.9 °F - 60.1 °F 79% 30.06 in 10.0 mi Calm Calm - N/A   Clear
8:53 AM 73.0 °F - 60.1 °F 64% 30.06 in 10.0 mi Calm Calm - N/A   Clear
9:53 AM 75.0 °F - 59.0 °F 57% 30.06 in 10.0 mi Variable 3.5 mph - N/A   Clear
10:53 AM 78.1 °F - 60.1 °F 54% 30.08 in 10.0 mi Variable 4.6 mph - N/A   Clear
11:53 AM 79.0 °F - 57.9 °F 48% 30.08 in 10.0 mi ESE 5.8 mph - N/A   Clear
12:53 PM 81.0 °F 81.3 °F 59.0 °F 47% 30.07 in 10.0 mi Calm Calm - N/A   Clear
1:53 PM 82.0 °F 81.7 °F 57.0 °F 42% 30.06 in 10.0 mi Calm Calm - N/A   Scattered Clouds
2:53 PM 84.0 °F 83.8 °F 59.0 °F 43% 30.03 in 10.0 mi Variable 4.6 mph - N/A   Scattered Clouds
3:53 PM 84.0 °F 83.8 °F 59.0 °F 43% 30.02 in 10.0 mi Calm Calm - N/A   Clear
4:53 PM 86.0 °F 84.9 °F 57.0 °F 37% 30.01 in 10.0 mi Calm Calm - N/A   Clear
5:53 PM 84.9 °F 84.4 °F 59.0 °F 41% 30.00 in 10.0 mi South 8.1 mph - N/A   Clear
6:53 PM 84.0 °F 83.8 °F 59.0 °F 43% 29.99 in 10.0 mi SE 8.1 mph - N/A   Clear
7:53 PM 81.0 °F 81.6 °F 60.1 °F 49% 30.00 in 10.0 mi SE 4.6 mph - N/A   Clear
8:53 PM 75.0 °F - 60.1 °F 60% 30.01 in 10.0 mi Calm Calm - N/A   Clear
9:53 PM 72.0 °F - 62.1 °F 71% 30.02 in 10.0 mi NW 3.5 mph - N/A   Clear
10:53 PM 70.0 °F - 61.0 °F 73% 30.02 in 10.0 mi Calm Calm - N/A   Clear
11:53 PM 70.0 °F - 60.1 °F 71% 30.02 in 10.0 mi Calm Calm - N/A   Clear